Overview Statistics Trail Chart Weather Telemetry Raw packets
 

This is the latest recevied weather packets stored in our database for station/object OK1FET-5. If no packets are shown the sender has not sent any weather packets the latest 10 day(s).

<< 36 37 38 39 40 41 42 >>
Time Temp. Humidity Pressure Rain* Wind** Luminosity Snow
1788002231 26.67° C 60% 1018 hPa - - - -
1788001635 26.11° C 57% 1018.1 hPa - - - -
1788001040 26.11° C 56% 1018.2 hPa - - - -
1788000444 25° C 58% 1018.2 hPa - - - -
1787999848 26.11° C 56% 1018.3 hPa - - - -
1787999252 25.56° C 56% 1018.2 hPa - - - -
1787998656 26.11° C 55% 1018.3 hPa - - - -
1787997465 24.44° C 61% 1018.3 hPa - - - -
1787996869 24.44° C 61% 1018.2 hPa - - - -
1787996273 25° C 59% 1018.1 hPa - - - -
1787995082 25° C 65% 1018.6 hPa - - - -
1787994486 24.44° C 66% 1018.5 hPa - - - -
1787993890 25° C 64% 1018.4 hPa - - - -
1787993294 25° C 69% 1018.4 hPa - - - -
1787992698 24.44° C 67% 1018.4 hPa - - - -
1787992103 23.89° C 71% 1018.5 hPa - - - -
1787991507 23.89° C 65% 1018.4 hPa - - - -
1787990315 22.78° C 73% 1018.3 hPa - - - -
1787989719 22.78° C 68% 1018.1 hPa - - - -
1787989124 22.22° C 67% 1018 hPa - - - -
1787988528 22.22° C 68% 1018 hPa - - - -
1787987932 22.22° C 77% 1018.1 hPa - - - -
1787987337 21.67° C 70% 1018 hPa - - - -
1787986741 21.11° C 71% 1018 hPa - - - -
1787986145 21.11° C 79% 1017.9 hPa - - - -

* Rain since midnight (hover to see other rain measurements)
** Current wind speed in m/s (hover to see current wind gust speed)